Time,TemperatureF,DewpointF,PressureIn,WindDirection,WindDirectionDegrees,WindSpeedMPH,WindSpeedGustMPH,Humidity,HourlyPrecipIn,Conditions,Clouds,dailyrainin,SoftwareType,DateUTC
2013-09-12 00:08:00,70.5,68.4,30.00,ESE,112,0.0,-999.0,93,-99.99,,,0.00,Acu-Link.com,2013-09-12 05:08:00,
2013-09-12 00:23:00,70.3,68.2,30.00,East,90,0.0,-999.0,93,-99.99,,,0.00,Acu-Link.com,2013-09-12 05:23:00,
2013-09-12 00:38:00,70.9,68.5,30.00,NNE,22,0.0,-999.0,92,-99.99,,,0.00,Acu-Link.com,2013-09-12 05:38:00,
2013-09-12 00:54:00,71.1,68.7,30.00,NE,45,0.0,-999.0,92,-99.99,,,0.00,Acu-Link.com,2013-09-12 05:54:00,
2013-09-12 01:09:00,70.7,68.3,29.99,NE,45,0.0,-999.0,92,-99.99,,,0.00,Acu-Link.com,2013-09-12 06:09:00,
2013-09-12 01:24:00,70.5,68.1,29.99,NE,45,0.0,-999.0,92,-99.99,,,0.00,Acu-Link.com,2013-09-12 06:24:00,
2013-09-12 01:40:00,70.0,67.6,29.99,NE,45,0.0,-999.0,92,-99.99,,,0.00,Acu-Link.com,2013-09-12 06:40:00,
2013-09-12 01:55:00,69.4,67.6,29.99,NE,45,0.0,-999.0,94,-99.99,,,0.00,Acu-Link.com,2013-09-12 06:55:00,
2013-09-12 02:10:00,68.4,66.9,29.98,NE,45,0.0,-999.0,95,-99.99,,,0.00,Acu-Link.com,2013-09-12 07:10:00,
2013-09-12 02:25:00,68.7,66.9,29.98,NE,45,0.0,-999.0,94,-99.99,,,0.00,Acu-Link.com,2013-09-12 07:25:00,
2013-09-12 02:41:00,68.7,67.2,29.98,NE,45,0.0,-999.0,95,-99.99,,,0.00,Acu-Link.com,2013-09-12 07:41:00,
2013-09-12 02:56:00,68.5,67.0,29.98,NE,45,0.0,-999.0,95,-99.99,,,0.00,Acu-Link.com,2013-09-12 07:56:00,
2013-09-12 03:11:00,68.2,66.7,29.97,NE,45,0.0,-999.0,95,-99.99,,,0.00,Acu-Link.com,2013-09-12 08:11:00,
2013-09-12 03:27:00,68.0,66.8,29.97,NE,45,0.0,-999.0,96,-99.99,,,0.00,Acu-Link.com,2013-09-12 08:27:00,
2013-09-12 03:42:00,67.6,66.4,29.97,NE,45,0.0,-999.0,96,-99.99,,,0.00,Acu-Link.com,2013-09-12 08:42:00,
2013-09-12 03:57:00,67.6,66.4,29.98,NE,45,0.0,-999.0,96,-99.99,,,0.00,Acu-Link.com,2013-09-12 08:57:00,
2013-09-12 04:12:00,66.9,66.0,29.98,NE,45,0.0,-999.0,97,-99.99,,,0.00,Acu-Link.com,2013-09-12 09:12:00,
2013-09-12 04:28:00,67.1,66.2,29.97,NE,45,0.0,-999.0,97,-99.99,,,0.00,Acu-Link.com,2013-09-12 09:28:00,
2013-09-12 04:43:00,66.6,66.0,29.97,NE,45,0.0,-999.0,98,-99.99,,,0.00,Acu-Link.com,2013-09-12 09:43:00,
2013-09-12 04:58:00,66.6,65.7,29.97,NE,45,0.0,-999.0,97,-99.99,,,0.00,Acu-Link.com,2013-09-12 09:58:00,
2013-09-12 05:13:00,66.7,65.8,29.97,NE,45,0.0,-999.0,97,-99.99,,,0.00,Acu-Link.com,2013-09-12 10:13:00,
2013-09-12 05:28:00,66.7,65.8,29.98,NE,45,0.0,-999.0,97,-99.99,,,0.00,Acu-Link.com,2013-09-12 10:28:00,
2013-09-12 05:44:00,66.7,65.8,29.97,NE,45,0.0,-999.0,97,-99.99,,,0.00,Acu-Link.com,2013-09-12 10:44:00,
2013-09-12 05:59:00,66.6,65.7,29.98,NE,45,0.0,-999.0,97,-99.99,,,0.00,Acu-Link.com,2013-09-12 10:59:00,
2013-09-12 06:14:00,66.2,65.3,29.97,NE,45,0.0,-999.0,97,-99.99,,,0.00,Acu-Link.com,2013-09-12 11:14:00,
2013-09-12 06:30:00,66.2,65.6,29.98,NE,45,0.0,-999.0,98,-99.99,,,0.00,Acu-Link.com,2013-09-12 11:30:00,
2013-09-12 06:45:00,65.7,64.8,29.98,NE,45,0.0,-999.0,97,-99.99,,,0.00,Acu-Link.com,2013-09-12 11:45:00,
2013-09-12 07:00:00,65.8,65.5,29.98,NE,45,0.0,-999.0,99,-99.99,,,0.00,Acu-Link.com,2013-09-12 12:00:00,
2013-09-12 07:16:00,66.0,65.7,29.99,NE,45,0.0,-999.0,99,-99.99,,,0.00,Acu-Link.com,2013-09-12 12:16:00,
2013-09-12 07:31:00,66.9,66.3,30.00,NE,45,0.0,-999.0,98,-99.99,,,0.00,Acu-Link.com,2013-09-12 12:31:00,
2013-09-12 07:46:00,67.6,66.7,30.00,NE,45,0.0,-999.0,97,-99.99,,,0.00,Acu-Link.com,2013-09-12 12:46:00,
2013-09-12 08:01:00,68.2,67.3,30.00,NE,45,0.0,-999.0,97,-99.99,,,0.00,Acu-Link.com,2013-09-12 13:01:00,
2013-09-12 08:17:00,69.1,68.2,30.00,NE,45,0.0,-999.0,97,-99.99,,,0.00,Acu-Link.com,2013-09-12 13:17:00,
2013-09-12 08:32:00,71.4,70.5,30.00,ESE,112,0.0,-999.0,97,-99.99,,,0.00,Acu-Link.com,2013-09-12 13:32:00,
2013-09-12 08:47:00,73.8,71.6,30.01,NE,45,0.0,-999.0,93,-99.99,,,0.00,Acu-Link.com,2013-09-12 13:47:00,
2013-09-12 09:02:00,74.5,71.4,30.01,West,270,2.7,-999.0,90,-99.99,,,0.00,Acu-Link.com,2013-09-12 14:02:00,
2013-09-12 09:18:00,75.4,71.3,30.02,West,270,1.1,-999.0,87,-99.99,,,0.00,Acu-Link.com,2013-09-12 14:18:00,
2013-09-12 09:33:00,77.5,71.6,30.02,NNW,337,1.7,-999.0,82,-99.99,,,0.00,Acu-Link.com,2013-09-12 14:33:00,
2013-09-12 09:48:00,78.3,70.9,30.02,West,270,1.7,-999.0,78,-99.99,,,0.00,Acu-Link.com,2013-09-12 14:48:00,
2013-09-12 10:04:00,79.7,71.1,30.02,WNW,292,2.2,-999.0,75,-99.99,,,0.00,Acu-Link.com,2013-09-12 15:04:00,
2013-09-12 10:19:00,81.3,71.0,30.02,ENE,67,2.2,-999.0,71,-99.99,,,0.00,Acu-Link.com,2013-09-12 15:19:00,
2013-09-12 10:34:00,82.6,70.9,30.02,South,180,2.2,-999.0,68,-99.99,,,0.00,Acu-Link.com,2013-09-12 15:34:00,
2013-09-12 10:49:00,83.8,71.2,30.02,North,0,2.7,-999.0,66,-99.99,,,0.00,Acu-Link.com,2013-09-12 15:49:00,
2013-09-12 11:04:00,84.0,70.5,30.02,West,270,2.2,-999.0,64,-99.99,,,0.00,Acu-Link.com,2013-09-12 16:04:00,
2013-09-12 11:20:00,86.4,70.8,30.01,NNE,22,3.2,-999.0,60,-99.99,,,0.00,Acu-Link.com,2013-09-12 16:20:00,
2013-09-12 11:35:00,86.2,70.2,30.01,WNW,292,2.2,-999.0,59,-99.99,,,0.00,Acu-Link.com,2013-09-12 16:35:00,
2013-09-12 11:50:00,86.5,70.9,30.01,East,90,2.7,-999.0,60,-99.99,,,0.00,Acu-Link.com,2013-09-12 16:50:00,
2013-09-12 12:05:00,88.3,71.1,30.00,South,180,1.7,-999.0,57,-99.99,,,0.00,Acu-Link.com,2013-09-12 17:05:00,
2013-09-12 12:21:00,86.9,70.8,30.00,West,270,1.7,-999.0,59,-99.99,,,0.00,Acu-Link.com,2013-09-12 17:21:00,
2013-09-12 12:36:00,89.4,71.6,30.00,ESE,112,2.2,-999.0,56,-99.99,,,0.00,Acu-Link.com,2013-09-12 17:36:00,
2013-09-12 12:51:00,90.3,72.4,29.99,ESE,112,3.2,-999.0,56,-99.99,,,0.00,Acu-Link.com,2013-09-12 17:51:00,
2013-09-12 13:06:00,90.3,70.2,29.99,West,270,2.7,-999.0,52,-99.99,,,0.00,Acu-Link.com,2013-09-12 18:06:00,
2013-09-12 13:22:00,89.2,70.9,29.99,North,0,2.2,-999.0,55,-99.99,,,0.00,Acu-Link.com,2013-09-12 18:22:00,
2013-09-12 13:37:00,88.0,70.3,29.98,West,270,2.2,-999.0,56,-99.99,,,0.00,Acu-Link.com,2013-09-12 18:37:00,
2013-09-12 13:52:00,86.7,69.1,29.98,West,270,1.7,-999.0,56,-99.99,,,0.00,Acu-Link.com,2013-09-12 18:52:00,
2013-09-12 14:07:00,87.6,70.5,29.97,North,0,2.2,-999.0,57,-99.99,,,0.00,Acu-Link.com,2013-09-12 19:07:00,
2013-09-12 14:23:00,89.2,70.9,29.96,West,270,2.2,-999.0,55,-99.99,,,0.00,Acu-Link.com,2013-09-12 19:23:00,
2013-09-12 14:38:00,90.3,69.7,29.96,NNE,22,1.7,-999.0,51,-99.99,,,0.00,Acu-Link.com,2013-09-12 19:38:00,
2013-09-12 14:53:00,90.3,69.7,29.95,WNW,292,2.2,-999.0,51,-99.99,,,0.00,Acu-Link.com,2013-09-12 19:53:00,
2013-09-12 15:08:00,92.1,71.9,29.94,NE,45,3.7,-999.0,52,-99.99,,,0.00,Acu-Link.com,2013-09-12 20:08:00,
2013-09-12 15:23:00,88.0,71.3,29.94,NNW,337,1.7,-999.0,58,-99.99,,,0.00,Acu-Link.com,2013-09-12 20:23:00,
2013-09-12 15:38:00,90.0,70.5,29.94,NW,315,1.7,-999.0,53,-99.99,,,0.00,Acu-Link.com,2013-09-12 20:38:00,
2013-09-12 15:54:00,88.0,68.7,29.93,NNW,337,2.7,-999.0,53,-99.99,,,0.00,Acu-Link.com,2013-09-12 20:54:00,
2013-09-12 16:09:00,88.9,70.1,29.92,NW,315,2.7,-999.0,54,-99.99,,,0.00,Acu-Link.com,2013-09-12 21:09:00,
2013-09-12 16:24:00,87.6,69.4,29.93,NNE,22,2.7,-999.0,55,-99.99,,,0.00,Acu-Link.com,2013-09-12 21:24:00,
2013-09-12 16:40:00,88.9,69.5,29.92,West,270,2.2,-999.0,53,-99.99,,,0.00,Acu-Link.com,2013-09-12 21:40:00,
2013-09-12 16:55:00,88.7,69.3,29.92,WSW,247,2.7,-999.0,53,-99.99,,,0.00,Acu-Link.com,2013-09-12 21:55:00,
2013-09-12 17:10:00,87.6,69.9,29.92,NNW,337,4.2,-999.0,56,-99.99,,,0.00,Acu-Link.com,2013-09-12 22:10:00,
2013-09-12 17:25:00,86.7,69.1,29.92,NE,45,2.7,-999.0,56,-99.99,,,0.00,Acu-Link.com,2013-09-12 22:25:00,
2013-09-12 17:40:00,86.7,69.6,29.91,SW,225,0.0,-999.0,57,-99.99,,,0.00,Acu-Link.com,2013-09-12 22:40:00,
2013-09-12 17:55:00,85.8,69.3,29.91,North,0,1.1,-999.0,58,-99.99,,,0.00,Acu-Link.com,2013-09-12 22:55:00,
2013-09-12 18:11:00,84.9,69.4,29.92,NW,315,3.7,-999.0,60,-99.99,,,0.00,Acu-Link.com,2013-09-12 23:11:00,
2013-09-12 18:26:00,84.4,69.9,29.92,NNW,337,1.1,-999.0,62,-99.99,,,0.00,Acu-Link.com,2013-09-12 23:26:00,
2013-09-12 18:41:00,83.1,70.5,29.92,North,0,0.0,-999.0,66,-99.99,,,0.00,Acu-Link.com,2013-09-12 23:41:00,
2013-09-12 18:57:00,81.9,70.3,29.92,North,0,1.7,-999.0,68,-99.99,,,0.00,Acu-Link.com,2013-09-12 23:57:00,
2013-09-12 19:12:00,81.0,69.4,29.93,NNW,337,1.1,-999.0,68,-99.99,,,0.00,Acu-Link.com,2013-09-13 00:12:00,
2013-09-12 19:27:00,80.2,69.5,29.93,WSW,247,0.0,-999.0,70,-99.99,,,0.00,Acu-Link.com,2013-09-13 00:27:00,
2013-09-12 19:42:00,79.0,69.6,29.93,WNW,292,0.0,-999.0,73,-99.99,,,0.00,Acu-Link.com,2013-09-13 00:42:00,
2013-09-12 19:58:00,78.3,69.3,29.94,WNW,292,0.0,-999.0,74,-99.99,,,0.00,Acu-Link.com,2013-09-13 00:58:00,
2013-09-12 20:13:00,77.5,69.3,29.93,WNW,292,0.0,-999.0,76,-99.99,,,0.00,Acu-Link.com,2013-09-13 01:13:00,
2013-09-12 20:28:00,76.8,69.4,29.94,WNW,292,0.0,-999.0,78,-99.99,,,0.00,Acu-Link.com,2013-09-13 01:28:00,
2013-09-12 20:43:00,76.1,69.5,29.95,NNW,337,0.0,-999.0,80,-99.99,,,0.00,Acu-Link.com,2013-09-13 01:43:00,
2013-09-12 20:58:00,75.6,69.3,29.96,North,0,3.2,-999.0,81,-99.99,,,0.00,Acu-Link.com,2013-09-13 01:58:00,
2013-09-12 21:14:00,75.4,68.8,29.97,NNW,337,1.1,-999.0,80,-99.99,,,0.00,Acu-Link.com,2013-09-13 02:14:00,
2013-09-12 21:29:00,75.2,68.6,29.96,SSW,202,0.0,-999.0,80,-99.99,,,0.00,Acu-Link.com,2013-09-13 02:29:00,
2013-09-12 21:44:00,74.8,67.8,29.96,West,270,0.0,-999.0,79,-99.99,,,0.00,Acu-Link.com,2013-09-13 02:44:00,
2013-09-12 22:00:00,74.5,67.9,29.96,WSW,247,1.7,-999.0,80,-99.99,,,0.00,Acu-Link.com,2013-09-13 03:00:00,
2013-09-12 22:15:00,74.1,67.5,29.96,NNE,22,3.2,-999.0,80,-99.99,,,0.00,Acu-Link.com,2013-09-13 03:15:00,
2013-09-12 22:30:00,73.9,67.7,29.96,West,270,0.0,-999.0,81,-99.99,,,0.00,Acu-Link.com,2013-09-13 03:30:00,
2013-09-12 22:46:00,73.4,67.6,29.97,WNW,292,0.0,-999.0,82,-99.99,,,0.00,Acu-Link.com,2013-09-13 03:46:00,
2013-09-12 23:01:00,73.2,67.4,29.97,West,270,0.0,-999.0,82,-99.99,,,0.00,Acu-Link.com,2013-09-13 04:01:00,
2013-09-12 23:16:00,72.9,67.8,29.96,West,270,0.0,-999.0,84,-99.99,,,0.00,Acu-Link.com,2013-09-13 04:16:00,
2013-09-12 23:31:00,72.5,67.7,29.96,SE,135,0.0,-999.0,85,-99.99,,,0.00,Acu-Link.com,2013-09-13 04:31:00,
2013-09-12 23:46:00,72.3,67.5,29.96,NNE,22,0.0,-999.0,85,-99.99,,,0.00,Acu-Link.com,2013-09-13 04:46:00,